STARLINK-37834, 69428

Orbit data source: Space-Track

STARLINK-37834, 69428 is a payload satellite owned by SpaceX/Seattle (US) in SSO that was launched on Sun, 07 Jun 2026 UTC via an FALCON 9 launch vehicle from the Air Force Western Test Range (AFWTR). Payload-class satellites include a variety of spacecraft equipped with specific instruments for various scientific and technological missions. These include communications satellites like Starlink; space stations such as the ISS; scientific satellites like the Hubble; Earth observation satellites from companies like Planet Labs, Umbra, and HawkEye 360; GPS; miniature CubeSats for education and research; and military/defense satellites.

Not visible in the next 10 days
Identifier
69428, 2026-126J
Orbit
SSO
Country
Flag of USUS
Related business
Manufacturer
SpaceX/Seattle
Mission
Operational spacecraft
Bus & Motor
STARLINK V2MO, Unknown motor
Mass
575 kg wet, ~530 kg dry
Launch date (UTC)
2026-06-07 (2 weeks ago)
Launch vehicle
FALCON 9
Launch site
Air Force Western Test Range (AFWTR)
Object type
Payload
Rocket body
Debris
Shape & HBR
Unknown
Radar Cross Section
RCS unknown

Expand to show TLE details & history
Last TLE update: 11 hours ago

TLE from 11 hours ago
0 STARLINK-37834
1 69428U 26126J   26171.39906132  .00238840  00000-0  15534-2 0  9991
2 69428  97.2837  31.5687 0002751  56.8303 303.3226 15.75254348  3250
Epoch: 2026-06-20T09:34Z
TLE epoch observation values (Epoch: 2026-06-20T09:34:38.898Z)
Latitude
0.00002°
Longitude
-20.70762°
Altitude
346.06 km
Speed
7.702 km/s
True Right ascension
02h 06m 16s
True Declination
0° 00' 00"
Sunlit
Object was in daylight at epoch
Visualization orbit readout
Latitude
Unknown
Longitude
Unknown
Altitude
Unknown
Speed
Unknown
Apparent Right ascension
Unknown
Apparent Declination
Unknown
Sunlit
N/A
Visualization observer readout
Local Sidereal Time
07:12:14
Azimuth
Unknown
Elevation
Unknown
Doppler factor
Unknown
Orbital elements
Apogee altitude
342.643 km
Perigee altitude
338.946 km
Semi-major axis
6,718.932 km
Eccentricity
0.00028
Inclination
97.2837°
RAAN
31.5687°
Arg. of periapsis
56.8303°
True anomaly
303.29625°
Mean anomaly
303.3226°
Eccentric anomaly
303.30943°
Mean motion
3.94088 °/min
Orbital period
91.35 mins
BSTAR
0.0015534
Loading maneuver chart data...
Computing Atmospheric mass density...
Loading historical data...
Loading historical data...
Loading historical data...
Loading historical data...
Loading historical data...
Loading historical data...
Loading historical data...

Documentation

Showing up to 5 results
|